Flag for Czech Republic Weather past 2 weeks in Brno, Czech Republic

Now
70 °F

Partly sunny.


Feels Like: 77 °F
Forecast: 51 / 69 °F
Wind: 3 mph from South

Location: Brno / Turany

Current Time: Apr 25, 2015 at 6:54:24 PM

Latest Report: Apr 25, 2015 at 6:00 PM


Visibility: 25 mi

Pressure: 29.80 "Hg

Humidity: 36%

Dew point: 42 °F

Location of BrnoLocation

Historic Weather in Brno — Graph

°F

Brno temperature yesterday

Maximum temperature yesterday: 66 °F (at 6:00 PM)
Minimum temperature yesterday: 44 °F (at 6:00 AM)
Average temperature yesterday: 55 °F

Past Weeks' High & Low Weather Summary

 TemperatureHumidityPressure
High75 °F (Apr 16, 2:00 PM)89% (Apr 12, 12:00 AM)30.41 "Hg (Apr 12, 12:00 AM)
Low33 °F (Apr 19, 3:00 AM)21% (Apr 21, 5:00 PM)29.81 "Hg (Apr 16, 5:00 PM)
Average54 °F53%30.12 "Hg
* Reported Apr 10 5:00 PM — Apr 25 5:00 PM, Brno, Weather by CustomWeather, © 2015

Note: Actual official high and low records may vary slightly from our data, if they occured in-between our weather recording intervals... More about our weather records

Advertising

Brno weather history for previous 24 hours

 ConditionsComfort  
Time TempWeatherWind HumidityBarometerVisibility
5:00 PM
Sat, Apr 25
72 °FPartly sunny.5 mph34%29.81 "Hg25 mi
4:00 PM71 °FPartly sunny.6 mph36%29.83 "Hg25 mi
3:00 PM70 °FScattered clouds.2 mph37%29.85 "Hg25 mi
2:00 PM69 °FScattered clouds.6 mph39%29.87 "Hg25 mi
1:00 PM68 °FScattered clouds.5 mph40%29.90 "Hg25 mi
12:00 PM66 °FPassing clouds.5 mph48%29.92 "Hg25 mi
11:00 AM63 °FPassing clouds.5 mph55%29.93 "Hg25 mi
10:00 AM58 °FPassing clouds.2 mph64%29.96 "Hg25 mi
9:00 AM55 °FPassing clouds.1 mph65%29.96 "Hg25 mi
8:00 AM50 °FPassing clouds.1 mph74%29.96 "Hg25 mi
7:00 AM45 °FPassing clouds.1 mph78%29.97 "Hg28 mi
6:00 AM42 °FPassing clouds.2 mph83%29.97 "Hg28 mi
5:00 AMN/APassing clouds.10 mphN/AN/A1 mi
4:00 AM45 °FClear.1 mph77%29.97 "Hg31 mi
3:00 AM47 °FClear.1 mph70%29.96 "Hg31 mi
1:00 AM47 °FPassing clouds.3 mph66%29.97 "Hg25 mi
12:00 AM54 °FPassing clouds.2 mph54%29.96 "Hg25 mi
10:00 PM
Fri, Apr 24
57 °FClear.2 mph53%29.96 "Hg28 mi
9:00 PM57 °FPassing clouds.1 mph56%29.95 "Hg28 mi
8:00 PM61 °FPassing clouds.2 mph49%29.93 "Hg28 mi
7:00 PM63 °FPassing clouds.3 mph50%29.92 "Hg28 mi
6:00 PM66 °FScattered clouds.3 mph49%29.92 "Hg25 mi
Weather by CustomWeather, © 2015

See weather overviewHow to use our weather pages